Regional Weather Roundup
Issued by NWS Portland, ME

Home | Current Version | Previous Version | Text Only | Print | Product List | Glossary On
Versions: 1 2 3 4 5 6 7 8 9 10 11 12 13 14 15 16 17 18 19 20 21 22 23 24 25 26 27 28 29 30 31 32 33 34 35 36 37 38 39 40 41 42 43 44 45 46 47 48 49 50
000
ASUS41 KGYX 301010
RWRGYX
WEATHER ROUNDUP FOR MAINE AND NEW HAMPSHIRE
NATIONAL WEATHER SERVICE GRAY ME
600 AM EDT SAT APR 30 2016

MEZ002-005-006-010-012-015-018-020-021-024-026-027-029-301100-
MAINE

CITY           SKY/WX    TMP DP  RH WIND       PRES   REMARKS
PORTLAND       PTCLDY    31  29  92 CALM      30.18R
SANFORD        CLOUDY    25  19  80 CALM      30.17R
BAR HARBOR     CLEAR     30  29  96 CALM      30.21R
WISCASSET      PTCLDY    30  28  92 CALM      30.21R
ROCKLAND       PTCLDY    29  27  92 CALM      30.20R
FRYEBURG       PTCLDY    26  25  96 CALM      30.19R
LEWISTONAUBURN CLOUDY    30  25  80 N3        30.17S
AUGUSTA        PTCLDY    32  31  96 N5        30.19R
WATERVILLE     CLOUDY    30  28  92 N5        30.17R
BANGOR         FOG       32  30  92 N5        30.21R VSB 1/2
GREENVILLE       N/A     31  16  54 NW3       30.15R
MILLINOCKET    CLEAR     26  19  74 CALM      30.22R
HOULTON        PTCLDY    23  17  78 CALM      30.20R
PRESQUE ISLE   PTCLDY    19  16  88 CALM      30.22R
FRENCHVILLE    CLOUDY    28  13  53 NW6       30.19R
CARIBOU        PTCLDY    27  14  58 CALM      30.20R
$$

NHZ002-005-008-009-011-012-014-301100-
NEW HAMPSHIRE

CITY           SKY/WX    TMP DP  RH WIND       PRES   REMARKS
PORTSMOUTH     PTCLDY    37  32  82 NW3       30.15S
ROCHESTER      PTCLDY    31  28  89 NW6       30.16S
NASHUA         CLEAR     36  31  82 NW5       30.18R
MANCHESTER     PTCLDY    39  31  72 N3        30.15R
CONCORD        CLEAR     33  29  85 CALM      30.17R
LACONIA        CLEAR     34  28  80 CALM      30.18R
PLYMOUTH       FAIR      29  29 100 CALM      30.18R FOG
BERLIN         CLOUDY    27  23  85 CALM      30.17R
WHITEFIELD     MOCLDY    28  23  81 CALM      30.16R
JAFFREY        PTCLDY    36  32  85 CALM      30.14R
KEENE            N/A    N/A N/A N/A MISG        N/A
LEBANON        CLEAR     33  30  88 CALM      30.17R
MT WASHINGTON  PTCLDY    25  19  80 W22         N/A  WCI  10
$$

VTZ005-007-008-301100-
VERMONT

CITY           SKY/WX    TMP DP  RH WIND       PRES   REMARKS
ST JOHNSBURY     N/A     31  24  75 MISG      30.17R
MONTPELIER     FAIR      32  19  58 CALM      30.21R
BURLINGTON     FAIR      33  22  63 CALM      30.21R
$$

MAZ007-012-024-CTZ003-RIZ002-NYZ038-NYZ072-301100-
SOUTHERN NEW ENGLAND AND NY

CITY           SKY/WX    TMP DP  RH WIND       PRES   REMARKS
BOSTON         CLEAR     42  35  76 S9        30.18R
WORCESTER      CLEAR     38  30  73 SW7       30.14R
NANTUCKET      CLEAR     39  33  79 NE5       30.16S
PROVIDENCE     PTCLDY    40  33  76 CALM      30.18R
HARTFORD       MOCLDY    43  38  82 W6        30.17R
ALBANY         CLOUDY    46  39  76 CALM      30.20R
NEW YORK CITY  MOCLDY    48  39  71 NE8       30.17S
$$

ANZ081-ANZ082-ANZ150-NHZ014-MEZ023>029-301100-
COASTAL MARINE OBSERVATIONS

STATION/POSITION TIME  TEMP    WIND        PRES    WAVE
                       AIR SEA DIR/SP/G            HT/PER
                 (UTC) (F)     (DEG/KT/KT) (MB)    (FT/S)
MOUNT DESERT ROC 1000   42     360/  4/  4 1022.7S
MATINICUS ROCK   0900   41      CALM  /  1 1022.0R
ISLE OF SHOALS   0900   44     170/ 12/ 13 1020.9F
CASHES LEDGE BUO 0950   43 44  200/  4/  4 1021.8F   2/ 9
GEORGES BANK BUO 0950   43 44              1020.6R   3/ 4
$$

.............KEY..............
   WCI - WIND CHILL
   TC  - TEMPERATURE IN CELSIUS
   VSB - VISIBILITY IN MILES
   HX  - HEAT INDEX
   FAIR- INDICATES FEW OR NO CLOUDS BELOW 12,000 FT, WITH NO
         SIGNIFICANT WEATHER AND/OR OBSTRUCTIONS TO VISIBILITY.






USA.gov is the U.S. government's official web portal to all federal, state and local government web resources and services.